| time (UTC) | temp F | wind direction | speed MPH | gust MPH | rain 1hr in | rain 24hr in | rain mn in | humidity % | barometer mb |
| 20260903140040 | 74 | 271 | 2.0 | 7.0 | 0.00 | 0.40 | 0.00 | 89 | 1014.1 |
| 20260903135521 | 74 | 273 | 3.0 | 7.0 | 0.00 | 0.40 | 0.00 | 90 | 1014.1 |
| 20260903135021 | 74 | 0 | 0.0 | 4.0 | 0.00 | 0.40 | 0.00 | 93 | 1014.0 |
| 20260903134540 | 73 | 265 | 1.0 | 7.0 | 0.00 | 0.40 | 0.00 | 92 | 1013.9 |
| 20260903134017 | 73 | 265 | 2.0 | 7.0 | 0.00 | 0.40 | 0.00 | 92 | 1014.0 |
| 20260903133043 | 72 | 0 | 0.0 | 1.0 | 0.00 | 0.40 | 0.00 | 96 | 1014.0 |
| 20260903131541 | 71 | 0 | 0.0 | 1.0 | 0.00 | 0.40 | 0.00 | 97 | 1014.0 |
| 20260903131020 | 70 | 0 | 0.0 | 0.0 | 0.00 | 0.40 | 0.00 | 98 | 1014.2 |
| 20260903130520 | 70 | 0 | 0.0 | 0.0 | 0.00 | 0.40 | 0.00 | 97 | 1014.2 |
| 20260903130058 | 70 | 0 | 0.0 | 0.0 | 0.00 | 0.40 | 0.00 | 97 | 1014.2 |
| 20260903124539 | 70 | 0 | 0.0 | 0.0 | 0.00 | 0.40 | 0.00 | 97 | 1014.3 |
| 20260903123523 | 69 | 0 | 0.0 | 0.0 | 0.00 | 0.40 | 0.00 | 98 | 1014.3 |
| 20260903123041 | 69 | 0 | 0.0 | 0.0 | 0.00 | 0.40 | 0.00 | 98 | 1014.2 |
| 20260903122521 | 69 | 0 | 0.0 | 0.0 | 0.00 | 0.40 | 0.00 | 98 | 1014.3 |
| 20260903122024 | 69 | 0 | 0.0 | 0.0 | 0.00 | 0.40 | 0.00 | 98 | 1014.1 |
| 20260903121545 | 69 | 0 | 0.0 | 0.0 | 0.00 | 0.40 | 0.00 | 98 | 1014.2 |
| 20260903121020 | 69 | 0 | 0.0 | 0.0 | 0.00 | 0.40 | 0.00 | 98 | 1014.2 |
| 20260903120520 | 68 | 0 | 0.0 | 0.0 | 0.00 | 0.40 | 0.00 | 98 | 1014.2 |
| 20260903120040 | 68 | 0 | 0.0 | 0.0 | 0.00 | 0.40 | 0.00 | 98 | 1014.2 |
| 20260903114540 | 68 | 0 | 0.0 | 0.0 | 0.00 | 0.40 | 0.00 | 98 | 1014.2 |
| 20260903113521 | 68 | 0 | 0.0 | 0.0 | 0.00 | 0.40 | 0.00 | 98 | 1014.0 |
| 20260903113042 | 68 | 0 | 0.0 | 0.0 | 0.00 | 0.40 | 0.00 | 98 | 1013.9 |
| 20260903112522 | 68 | 0 | 0.0 | 0.0 | 0.00 | 0.40 | 0.00 | 98 | 1013.8 |
| 20260903112023 | 68 | 0 | 0.0 | 0.0 | 0.00 | 0.40 | 0.00 | 98 | 1013.8 |
| 20260903111539 | 68 | 0 | 0.0 | 0.0 | 0.00 | 0.40 | 0.00 | 98 | 1013.8 |
| 20260903111020 | 68 | 0 | 0.0 | 1.0 | 0.00 | 0.40 | 0.00 | 98 | 1013.9 |
| 20260903110524 | 68 | 0 | 0.0 | 1.0 | 0.00 | 0.40 | 0.00 | 98 | 1013.8 |
| 20260903110108 | 67 | 0 | 0.0 | 0.0 | 0.00 | 0.40 | 0.00 | 98 | 1013.8 |
| 20260903105519 | 67 | 0 | 0.0 | 0.0 | 0.00 | 0.40 | 0.00 | 98 | 1013.8 |
| 20260903104541 | 67 | 0 | 0.0 | 0.0 | 0.00 | 0.40 | 0.00 | 98 | 1014.0 |
| 20260903103039 | 67 | 0 | 0.0 | 0.0 | 0.00 | 0.40 | 0.00 | 98 | 1013.8 |
| 20260903102519 | 67 | 0 | 0.0 | 0.0 | 0.00 | 0.40 | 0.00 | 98 | 1013.9 |
| 20260903102017 | 67 | 0 | 0.0 | 0.0 | 0.00 | 0.40 | 0.00 | 98 | 1014.0 |
| 20260903101537 | 67 | 0 | 0.0 | 0.0 | 0.00 | 0.40 | 0.00 | 98 | 1013.9 |
| 20260903100040 | 67 | 0 | 0.0 | 0.0 | 0.00 | 0.40 | 0.00 | 98 | 1013.9 |
| 20260903095018 | 67 | 0 | 0.0 | 0.0 | 0.00 | 0.40 | 0.00 | 98 | 1013.8 |
| 20260903094551 | 67 | 0 | 0.0 | 0.0 | 0.00 | 0.40 | 0.00 | 98 | 1013.8 |
| 20260903094019 | 67 | 0 | 0.0 | 0.0 | 0.00 | 0.40 | 0.00 | 98 | 1013.8 |
| 20260903093517 | 67 | 0 | 0.0 | 0.0 | 0.00 | 0.40 | 0.00 | 98 | 1013.7 |
| 20260903093040 | 67 | 0 | 0.0 | 1.0 | 0.00 | 0.40 | 0.00 | 98 | 1013.6 |
| 20260903092522 | 67 | 0 | 0.0 | 1.0 | 0.00 | 0.40 | 0.00 | 98 | 1013.7 |
| 20260903092020 | 67 | 0 | 0.0 | 0.0 | 0.00 | 0.40 | 0.00 | 98 | 1013.7 |
| 20260903091542 | 67 | 0 | 0.0 | 0.0 | 0.00 | 0.40 | 0.00 | 98 | 1013.8 |
| 20260903090040 | 67 | 0 | 0.0 | 1.0 | 0.00 | 0.40 | 0.00 | 98 | 1013.6 |
| 20260903084539 | 67 | 290 | 0.0 | 2.0 | 0.00 | 0.40 | 0.00 | 98 | 1013.8 |
| 20260903084020 | 67 | 290 | 0.0 | 2.0 | 0.00 | 0.40 | 0.00 | 98 | 1013.8 |
| 20260903083520 | 67 | 0 | 0.0 | 2.0 | 0.00 | 0.40 | 0.00 | 98 | 1013.8 |
| 20260903083038 | 67 | 0 | 0.0 | 1.0 | 0.00 | 0.40 | 0.00 | 98 | 1013.7 |
| 20260903082520 | 67 | 0 | 0.0 | 1.0 | 0.00 | 0.40 | 0.00 | 98 | 1013.7 |
| 20260903082020 | 67 | 0 | 0.0 | 1.0 | 0.00 | 0.40 | 0.00 | 98 | 1013.8 |
| 20260903081542 | 67 | 0 | 0.0 | 1.0 | 0.00 | 0.40 | 0.00 | 98 | 1013.9 |
| 20260903080041 | 67 | 0 | 0.0 | 2.0 | 0.00 | 0.40 | 0.00 | 98 | 1013.9 |
| 20260903075520 | 67 | 0 | 0.0 | 0.0 | 0.00 | 0.40 | 0.00 | 98 | 1013.9 |
| 20260903075020 | 67 | 0 | 0.0 | 1.0 | 0.00 | 0.40 | 0.00 | 98 | 1013.9 |
| 20260903074541 | 67 | 0 | 0.0 | 1.0 | 0.00 | 0.40 | 0.00 | 98 | 1013.9 |
| 20260903074024 | 67 | 0 | 0.0 | 0.0 | 0.00 | 0.40 | 0.00 | 98 | 1013.8 |
| 20260903073042 | 67 | 0 | 0.0 | 0.0 | 0.00 | 0.40 | 0.00 | 98 | 1014.2 |
| 20260903071539 | 67 | 0 | 0.0 | 0.0 | 0.00 | 0.40 | 0.00 | 98 | 1013.9 |
| 20260903070039 | 67 | 0 | 0.0 | 1.0 | 0.00 | 0.40 | 0.00 | 98 | 1014.2 |
| 20260903065519 | 67 | 0 | 0.0 | 1.0 | 0.00 | 0.40 | 0.00 | 98 | 1014.0 |
| 20260903065020 | 67 | 0 | 0.0 | 5.0 | 0.00 | 0.40 | 0.00 | 98 | 1014.0 |
| 20260903064544 | 67 | 0 | 0.0 | 5.0 | 0.00 | 0.40 | 0.00 | 98 | 1014.1 |
| 20260903064018 | 67 | 0 | 0.0 | 1.0 | 0.00 | 0.40 | 0.00 | 98 | 1014.0 |
| 20260903063042 | 67 | 0 | 0.0 | 0.0 | 0.00 | 0.40 | 0.00 | 98 | 1014.0 |
| 20260903062027 | 67 | 0 | 0.0 | 2.0 | 0.00 | 0.40 | 0.00 | 98 | 1014.0 |
| 20260903061550 | 66 | 0 | 0.0 | 2.0 | 0.00 | 0.40 | 0.00 | 98 | 1013.9 |
| 20260903061023 | 66 | 0 | 0.0 | 1.0 | 0.00 | 0.40 | 0.00 | 98 | 1013.9 |
| 20260903060520 | 66 | 0 | 0.0 | 1.0 | 0.00 | 0.40 | 0.00 | 98 | 1013.8 |
| 20260903060043 | 66 | 0 | 0.0 | 1.0 | 0.00 | 0.40 | 0.00 | 98 | 1013.7 |
| 20260903055523 | 66 | 0 | 0.0 | 1.0 | 0.00 | 0.40 | 0.00 | 98 | 1013.6 |
| 20260903055021 | 66 | 0 | 0.0 | 0.0 | 0.00 | 0.40 | 0.00 | 98 | 1013.8 |
| 20260903054547 | 66 | 0 | 0.0 | 2.0 | 0.00 | 0.40 | 0.00 | 98 | 1013.8 |
| 20260903054022 | 66 | 0 | 0.0 | 2.0 | 0.00 | 0.40 | 0.00 | 98 | 1013.8 |
| 20260903053101 | 66 | 0 | 0.0 | 1.0 | 0.00 | 0.40 | 0.00 | 97 | 1013.8 |
| 20260903051542 | 66 | 0 | 0.0 | 3.0 | 0.00 | 0.40 | 0.00 | 97 | 1013.9 |
| 20260903050525 | 66 | 0 | 0.0 | 3.0 | 0.00 | 0.40 | 0.00 | 97 | 1013.7 |
| 20260903050038 | 66 | 0 | 0.0 | 2.0 | 0.00 | 0.40 | 0.00 | 97 | 1013.7 |
| 20260903044551 | 66 | 0 | 0.0 | 2.0 | 0.00 | 0.40 | 0.00 | 97 | 1013.8 |
| 20260903043038 | 66 | 0 | 0.0 | 4.0 | 0.00 | 0.40 | 0.00 | 97 | 1014.2 |
| 20260903042527 | 66 | 0 | 0.0 | 2.0 | 0.00 | 0.40 | 0.00 | 97 | 1014.3 |
| 20260903042020 | 66 | 212 | 0.0 | 1.0 | 0.00 | 0.40 | 0.00 | 97 | 1014.4 |
| 20260903041540 | 66 | 0 | 0.0 | 2.0 | 0.00 | 0.40 | 0.00 | 97 | 1014.6 |
| 20260903041017 | 67 | 0 | 0.0 | 2.0 | 0.00 | 0.40 | 0.00 | 97 | 1014.6 |
| 20260903040519 | 67 | 0 | 0.0 | 2.0 | 0.00 | 0.40 | 0.00 | 97 | 1014.7 |
| 20260903040037 | 67 | 0 | 0.0 | 2.0 | 0.00 | 0.40 | 0.00 | 97 | 1014.7 |
| 20260903034538 | 67 | 0 | 0.0 | 2.0 | 0.01 | 0.40 | 0.40 | 96 | 1014.2 |
| 20260903033039 | 67 | 0 | 0.0 | 5.0 | 0.04 | 0.40 | 0.40 | 96 | 1013.1 |
| 20260903032521 | 67 | 282 | 1.0 | 5.0 | 0.04 | 0.40 | 0.40 | 96 | 1013.0 |
| 20260903032020 | 67 | 202 | 1.0 | 5.0 | 0.06 | 0.40 | 0.40 | 96 | 1012.8 |
| 20260903031537 | 68 | 224 | 1.0 | 4.0 | 0.06 | 0.40 | 0.40 | 97 | 1013.0 |
| 20260903031022 | 68 | 350 | 0.0 | 4.0 | 0.07 | 0.40 | 0.40 | 97 | 1013.4 |
| 20260903030521 | 68 | 0 | 0.0 | 4.0 | 0.08 | 0.40 | 0.40 | 97 | 1013.7 |
| 20260903030045 | 68 | 0 | 0.0 | 6.0 | 0.09 | 0.40 | 0.40 | 97 | 1014.0 |
| 20260903024545 | 68 | 280 | 2.0 | 7.0 | 0.10 | 0.39 | 0.39 | 96 | 1014.1 |
| 20260903023039 | 69 | 287 | 2.0 | 12.0 | 0.09 | 0.36 | 0.36 | 96 | 1013.3 |
| 20260903022521 | 69 | 304 | 2.0 | 12.0 | 0.08 | 0.35 | 0.35 | 96 | 1014.0 |
| 20260903022021 | 69 | 101 | 2.0 | 11.0 | 0.07 | 0.34 | 0.34 | 96 | 1014.1 |
| 20260903021540 | 69 | 0 | 3.0 | 8.0 | 0.07 | 0.34 | 0.34 | 96 | 1014.2 |
| 20260903021020 | 69 | 306 | 2.0 | 8.0 | 0.07 | 0.33 | 0.33 | 96 | 1014.4 |
| 20260903020523 | 69 | 286 | 2.0 | 5.0 | 0.06 | 0.32 | 0.32 | 96 | 1014.6 |
| 20260903020041 | 69 | 280 | 1.0 | 5.0 | 0.05 | 0.31 | 0.31 | 96 | 1014.3 |
| 20260903014543 | 69 | 0 | 0.0 | 5.0 | 0.04 | 0.29 | 0.29 | 96 | 1015.0 |
| 20260903014020 | 69 | 242 | 1.0 | 5.0 | 0.03 | 0.28 | 0.28 | 95 | 1015.1 |
| 20260903013520 | 69 | 269 | 0.0 | 5.0 | 0.03 | 0.28 | 0.28 | 95 | 1015.3 |
| 20260903013038 | 70 | 227 | 1.0 | 5.0 | 0.02 | 0.27 | 0.27 | 95 | 1015.8 |
| 20260903012519 | 70 | 227 | 1.0 | 5.0 | 0.02 | 0.27 | 0.27 | 95 | 1016.1 |
| 20260903011543 | 70 | 0 | 1.0 | 3.0 | 0.02 | 0.27 | 0.27 | 94 | 1015.9 |
| 20260903010043 | 71 | 0 | 0.0 | 3.0 | 0.01 | 0.26 | 0.26 | 92 | 1015.6 |
| 20260903005021 | 71 | 208 | 0.0 | 7.0 | 0.00 | 0.25 | 0.25 | 92 | 1015.4 |
| 20260903004547 | 71 | 208 | 1.0 | 7.0 | 0.00 | 0.25 | 0.25 | 92 | 1015.3 |
| 20260903004021 | 71 | 265 | 1.0 | 5.0 | 0.00 | 0.25 | 0.25 | 92 | 1015.3 |
| 20260903003520 | 71 | 265 | 1.0 | 5.0 | 0.00 | 0.25 | 0.25 | 92 | 1015.3 |
| 20260903003039 | 71 | 28 | 0.0 | 4.0 | 0.00 | 0.25 | 0.25 | 91 | 1015.3 |
| 20260903002522 | 71 | 0 | 1.0 | 5.0 | 0.00 | 0.25 | 0.25 | 91 | 1015.1 |
| 20260903002020 | 71 | 0 | 1.0 | 5.0 | 0.00 | 0.25 | 0.25 | 91 | 1015.1 |
| 20260903001538 | 71 | 0 | 0.0 | 4.0 | 0.00 | 0.25 | 0.25 | 91 | 1015.1 |
| 20260903000043 | 71 | 0 | 0.0 | 7.0 | 0.00 | 0.25 | 0.25 | 91 | 1015.1 |
| 20260902235023 | 71 | 327 | 2.0 | 5.0 | 0.00 | 0.25 | 0.25 | 91 | 1014.9 |
| 20260902234539 | 72 | 306 | 1.0 | 6.0 | 0.00 | 0.25 | 0.25 | 90 | 1015.1 |
| 20260902234021 | 72 | 0 | 0.0 | 10.0 | 0.00 | 0.25 | 0.25 | 90 | 1015.0 |
| 20260902233522 | 72 | 113 | 1.0 | 10.0 | 0.00 | 0.25 | 0.25 | 90 | 1015.1 |
| 20260902233039 | 72 | 344 | 1.0 | 7.0 | 0.00 | 0.25 | 0.25 | 90 | 1015.4 |
| 20260902232520 | 72 | 338 | 2.0 | 7.0 | 0.00 | 0.25 | 0.25 | 90 | 1015.3 |
| 20260902232019 | 72 | 300 | 1.0 | 6.0 | 0.00 | 0.25 | 0.25 | 90 | 1015.0 |
| 20260902231547 | 72 | 22 | 2.0 | 6.0 | 0.00 | 0.25 | 0.25 | 90 | 1014.6 |
| 20260902231018 | 72 | 329 | 2.0 | 8.0 | 0.00 | 0.25 | 0.25 | 90 | 1014.4 |
| 20260902230040 | 73 | 0 | 1.0 | 9.0 | 0.00 | 0.25 | 0.25 | 89 | 1014.2 |
| 20260902224540 | 73 | 269 | 2.0 | 8.0 | 0.00 | 0.25 | 0.25 | 89 | 1014.0 |
| 20260902223518 | 73 | 271 | 2.0 | 7.0 | 0.00 | 0.25 | 0.25 | 88 | 1014.1 |
| 20260902223041 | 74 | 306 | 2.0 | 7.0 | 0.00 | 0.25 | 0.25 | 88 | 1014.4 |
| 20260902221540 | 74 | 336 | 2.0 | 7.0 | 0.00 | 0.25 | 0.25 | 87 | 1015.4 |
| 20260902220051 | 75 | 298 | 1.0 | 4.0 | 0.00 | 0.25 | 0.25 | 87 | 1015.8 |
| 20260902215521 | 76 | 0 | 0.0 | 4.0 | 0.00 | 0.25 | 0.25 | 87 | 1016.1 |
| 20260902215020 | 76 | 0 | 0.0 | 4.0 | 0.00 | 0.25 | 0.25 | 87 | 1016.0 |
| 20260902214539 | 76 | 73 | 0.0 | 5.0 | 0.00 | 0.25 | 0.25 | 87 | 1016.2 |
| 20260902214020 | 76 | 273 | 1.0 | 5.0 | 0.00 | 0.25 | 0.25 | 86 | 1016.3 |
| 20260902213036 | 76 | 0 | 1.0 | 6.0 | 0.00 | 0.25 | 0.25 | 86 | 1016.3 |
| 20260902211539 | 77 | 16 | 1.0 | 6.0 | 0.00 | 0.25 | 0.25 | 85 | 1016.2 |
| 20260902211021 | 77 | 307 | 1.0 | 6.0 | 0.00 | 0.25 | 0.25 | 85 | 1016.3 |
| 20260902210521 | 77 | 187 | 1.0 | 6.0 | 0.00 | 0.25 | 0.25 | 85 | 1016.3 |
| 20260902210045 | 77 | 0 | 1.0 | 6.0 | 0.00 | 0.25 | 0.25 | 85 | 1016.1 |
| 20260902205520 | 77 | 346 | 0.0 | 6.0 | 0.00 | 0.25 | 0.25 | 84 | 1016.3 |
| 20260902205021 | 78 | 0 | 1.0 | 6.0 | 0.00 | 0.25 | 0.25 | 84 | 1016.3 |
| 20260902204544 | 78 | 294 | 1.0 | 5.0 | 0.00 | 0.25 | 0.25 | 83 | 1016.3 |
| 20260902203042 | 79 | 309 | 1.0 | 8.0 | 0.00 | 0.25 | 0.25 | 83 | 1016.0 |
| 20260902201543 | 79 | 304 | 1.0 | 5.0 | 0.00 | 0.25 | 0.25 | 84 | 1015.7 |
| 20260902200524 | 80 | 292 | 1.0 | 4.0 | 0.00 | 0.25 | 0.25 | 82 | 1015.8 |
| 20260902200041 | 80 | 55 | 0.0 | 7.0 | 0.00 | 0.25 | 0.25 | 82 | 1015.8 |
| 20260902194541 | 80 | 0 | 0.0 | 5.0 | 0.00 | 0.25 | 0.25 | 81 | 1015.7 |
| 20260902194024 | 80 | 302 | 1.0 | 8.0 | 0.00 | 0.25 | 0.25 | 82 | 1015.9 |
| 20260902193520 | 80 | 296 | 0.0 | 8.0 | 0.00 | 0.25 | 0.25 | 82 | 1015.8 |
| 20260902193040 | 81 | 344 | 1.0 | 6.0 | 0.00 | 0.25 | 0.25 | 84 | 1016.0 |
| 20260902192520 | 80 | 111 | 0.0 | 5.0 | 0.00 | 0.25 | 0.25 | 83 | 1015.9 |
| 20260902192020 | 80 | 219 | 1.0 | 5.0 | 0.00 | 0.25 | 0.25 | 81 | 1015.9 |
| 20260902191538 | 80 | 127 | 1.0 | 5.0 | 0.00 | 0.25 | 0.25 | 81 | 1015.9 |
| 20260902191020 | 81 | 146 | 1.0 | 5.0 | 0.00 | 0.25 | 0.25 | 82 | 1016.0 |
| 20260902190517 | 80 | 334 | 1.0 | 7.0 | 0.00 | 0.25 | 0.25 | 83 | 1016.1 |
| 20260902190038 | 80 | 0 | 1.0 | 7.0 | 0.00 | 0.25 | 0.25 | 85 | 1016.2 |
| 20260902184558 | 79 | 0 | 0.0 | 6.0 | 0.00 | 0.25 | 0.25 | 86 | 1016.2 |
| 20260902184021 | 78 | 0 | 1.0 | 6.0 | 0.00 | 0.25 | 0.25 | 85 | 1016.2 |
| 20260902183048 | 78 | 248 | 1.0 | 4.0 | 0.00 | 0.25 | 0.25 | 86 | 1016.1 |
| 20260902182520 | 78 | 336 | 0.0 | 9.0 | 0.00 | 0.25 | 0.25 | 88 | 1016.1 |
| 20260902182020 | 78 | 234 | 1.0 | 9.0 | 0.00 | 0.25 | 0.25 | 86 | 1016.2 |
| 20260902181540 | 77 | 238 | 1.0 | 7.0 | 0.00 | 0.25 | 0.25 | 87 | 1016.2 |
| 20260902181021 | 77 | 320 | 2.0 | 7.0 | 0.00 | 0.25 | 0.25 | 88 | 1016.3 |
| 20260902180519 | 77 | 157 | 0.0 | 6.0 | 0.00 | 0.25 | 0.25 | 88 | 1016.6 |
| 20260902180038 | 76 | 0 | 1.0 | 6.0 | 0.00 | 0.25 | 0.25 | 89 | 1016.7 |
| 20260902175517 | 76 | 95 | 1.0 | 5.0 | 0.00 | 0.25 | 0.25 | 89 | 1016.7 |
| 20260902174538 | 75 | 18 | 1.0 | 6.0 | 0.00 | 0.25 | 0.25 | 90 | 1016.9 |
| 20260902173040 | 75 | 0 | 2.0 | 8.0 | 0.00 | 0.25 | 0.25 | 92 | 1016.6 |
| 20260902172521 | 74 | 334 | 1.0 | 8.0 | 0.00 | 0.25 | 0.25 | 93 | 1016.5 |
| 20260902172020 | 73 | 0 | 1.0 | 5.0 | 0.00 | 0.25 | 0.25 | 95 | 1016.3 |
| 20260902171540 | 72 | 0 | 1.0 | 6.0 | 0.01 | 0.25 | 0.25 | 95 | 1016.4 |
| 20260902171019 | 72 | 225 | 1.0 | 6.0 | 0.01 | 0.25 | 0.25 | 95 | 1016.3 |
| 20260902170519 | 71 | 61 | 1.0 | 7.0 | 0.02 | 0.25 | 0.25 | 96 | 1016.1 |
| 20260902170038 | 71 | 322 | 1.0 | 9.0 | 0.03 | 0.25 | 0.25 | 97 | 1016.3 |
| 20260902165520 | 71 | 0 | 1.0 | 9.0 | 0.05 | 0.25 | 0.25 | 98 | 1016.3 |
| 20260902165021 | 70 | 0 | 0.0 | 4.0 | 0.06 | 0.25 | 0.25 | 98 | 1016.4 |
| 20260902164547 | 70 | 290 | 1.0 | 13.0 | 0.08 | 0.25 | 0.25 | 98 | 1016.7 |
| 20260902163041 | 69 | 0 | 0.0 | 6.0 | 0.11 | 0.25 | 0.25 | 98 | 1017.2 |
| 20260902162021 | 69 | 277 | 2.0 | 10.0 | 0.13 | 0.25 | 0.25 | 98 | 1016.9 |
| 20260902161539 | 69 | 115 | 1.0 | 10.0 | 0.13 | 0.24 | 0.24 | 98 | 1017.0 |
| 20260902161021 | 70 | 0 | 0.0 | 9.0 | 0.15 | 0.24 | 0.24 | 98 | 1017.5 |
| 20260902160519 | 70 | 0 | 1.0 | 9.0 | 0.15 | 0.23 | 0.23 | 98 | 1017.8 |
| 20260902154554 | 71 | 0 | 0.0 | 1.0 | 0.14 | 0.17 | 0.17 | 98 | 1018.5 |
| 20260902154025 | 70 | 0 | 0.0 | 1.0 | 0.14 | 0.16 | 0.16 | 98 | 1018.8 |
| 20260902153521 | 70 | 0 | 0.0 | 1.0 | 0.14 | 0.16 | 0.16 | 98 | 1018.9 |
| 20260902153040 | 70 | 0 | 0.0 | 2.0 | 0.12 | 0.14 | 0.14 | 98 | 1018.9 |
| 20260902152517 | 70 | 0 | 0.0 | 2.0 | 0.12 | 0.13 | 0.13 | 98 | 1018.7 |
| 20260902152021 | 70 | 251 | 0.0 | 1.0 | 0.11 | 0.12 | 0.12 | 98 | 1018.6 |
| 20260902151539 | 71 | 251 | 0.0 | 1.0 | 0.10 | 0.10 | 0.10 | 98 | 1018.7 |
| 20260902150040 | 71 | 0 | 0.0 | 1.0 | 0.07 | 0.07 | 0.07 | 98 | 1018.5 |
| 20260902145021 | 71 | 0 | 0.0 | 2.0 | 0.04 | 0.04 | 0.04 | 98 | 1018.4 |
| 20260902144544 | 71 | 0 | 0.0 | 2.0 | 0.03 | 0.03 | 0.03 | 98 | 1018.6 |
| 20260902144020 | 71 | 251 | 0.0 | 2.0 | 0.02 | 0.02 | 0.02 | 98 | 1018.4 |
| 20260902143520 | 71 | 0 | 0.0 | 2.0 | 0.02 | 0.02 | 0.02 | 98 | 1018.1 |
| 20260902143038 | 71 | 0 | 0.0 | 2.0 | 0.02 | 0.02 | 0.02 | 98 | 1017.9 |
| 20260902142518 | 71 | 251 | 0.0 | 2.0 | 0.01 | 0.01 | 0.01 | 98 | 1017.8 |
| 20260902142020 | 71 | 0 | 0.0 | 2.0 | 0.01 | 0.01 | 0.01 | 98 | 1017.9 |
| 20260902141537 | 71 | 0 | 0.0 | 1.0 | 0.00 | 0.00 | 0.00 | 98 | 1017.9 |